^^
Saratoga-Weather Station Historical Data
Daily Summary for September 2, 2021 Units:  Metric    English   Both
Daily Weekly Monthly Yearly Custom
  High: Low: Average:
Temperature: 5.9 °C 2.3 °C 4.3 °C
Dew Point: 4.9 °C 0.5 °C 2.6 °C
Humidity: 94% 81% 89%
Wind Speed: 22.7km/h 0km/h 7.8km/h
Wind Gust: 25.7km/h - -
Wind- - West
Pressure: 1007.8 hPa 999.7 hPa -
Precipitation: 0.8 mm    
Historical Graphs
 
 
Tabular Data for September 2, 2021
Time Temperature Dew Point Pressure Wind Wind Speed Wind Gust Humidity Rainfall Rate (Hourly) solar
00:00 5.7 °C 4.8 °C 999.7 hPa West 4.7 km/h 8 km/h 94% 0.0 mm 0 W/m2
00:05 5.8 °C 4.8 °C 999.7 hPa West 4.7 km/h 12.9 km/h 93% 0.0 mm 0 W/m2
00:10 5.8 °C 4.8 °C 999.7 hPa West 3.2 km/h 8 km/h 93% 0.0 mm 0 W/m2
00:15 5.8 °C 4.8 °C 999.7 hPa West 4.7 km/h 6.4 km/h 93% 0.0 mm 0 W/m2
00:20 5.8 °C 4.8 °C 999.7 hPa WSW 1.4 km/h 8 km/h 93% 0.0 mm 0 W/m2
00:25 5.8 °C 4.8 °C 1000.0 hPa WNW 3.2 km/h 14.5 km/h 93% 0.0 mm 0 W/m2
00:30 5.8 °C 4.8 °C 1000.0 hPa SW 7.9 km/h 11.3 km/h 93% 0.0 mm 0 W/m2
00:35 5.8 °C 4.8 °C 1000.0 hPa West 6.4 km/h 12.9 km/h 93% 0.0 mm 0 W/m2
00:40 5.8 °C 4.8 °C 1000.0 hPa WSW 4.7 km/h 8 km/h 93% 0.0 mm 0 W/m2
00:45 5.8 °C 4.8 °C 1000.0 hPa WNW 3.2 km/h 4.8 km/h 93% 0.0 mm 0 W/m2
00:50 5.9 °C 4.9 °C 1000.0 hPa West 6.4 km/h 12.9 km/h 93% 0.0 mm 0 W/m2
00:55 5.8 °C 4.8 °C 1000.0 hPa SW 9.7 km/h 9.7 km/h 93% 0.0 mm 0 W/m2
01:00 5.9 °C 4.9 °C 1000.0 hPa WSW 12.9 km/h 12.9 km/h 93% 0.0 mm 0 W/m2
01:05 5.9 °C 4.9 °C 1000.0 hPa West 9.7 km/h 11.3 km/h 93% 0.0 mm 0 W/m2
01:10 5.9 °C 4.9 °C 999.7 hPa NW 4.7 km/h 4.8 km/h 93% 0.0 mm 0 W/m2
01:15 5.8 °C 4.8 °C 1000.0 hPa WSW 4.7 km/h 14.5 km/h 93% 0.0 mm 0 W/m2
01:20 5.8 °C 4.8 °C 1000.0 hPa NW 3.2 km/h 4.8 km/h 93% 0.0 mm 0 W/m2
01:25 5.8 °C 4.8 °C 999.7 hPa WNW 11.1 km/h 14.5 km/h 93% 0.0 mm 0 W/m2
01:30 5.8 °C 4.8 °C 1000.0 hPa West 3.2 km/h 6.4 km/h 93% 0.0 mm 0 W/m2
01:35 5.8 °C 4.8 °C 1000.0 hPa West 4.7 km/h 9.7 km/h 93% 0.0 mm 0 W/m2
01:40 5.8 °C 4.8 °C 1000.0 hPa West 4.7 km/h 17.7 km/h 93% 0.0 mm 0 W/m2
01:45 5.8 °C 4.8 °C 1000.0 hPa WSW 4.7 km/h 8 km/h 93% 0.0 mm 0 W/m2
01:50 5.8 °C 4.8 °C 1000.0 hPa WNW 3.2 km/h 14.5 km/h 93% 0.0 mm 0 W/m2
01:55 5.8 °C 4.8 °C 1000.0 hPa WSW 6.4 km/h 16.1 km/h 93% 0.0 mm 0 W/m2
02:00 5.8 °C 4.8 °C 1000.0 hPa West 4.7 km/h 6.4 km/h 93% 0.0 mm 0 W/m2
02:05 5.8 °C 4.8 °C 1000.0 hPa WSW 3.2 km/h 16.1 km/h 93% 0.0 mm 0 W/m2
02:10 5.8 °C 4.8 °C 1000.0 hPa West 4.7 km/h 11.3 km/h 93% 0.0 mm 0 W/m2
02:15 5.7 °C 4.7 °C 1000.0 hPa West 19.3 km/h 19.3 km/h 93% 0.0 mm 0 W/m2
02:20 5.7 °C 4.7 °C 1000.0 hPa West 1.4 km/h 12.9 km/h 93% 0.0 mm 0 W/m2
02:25 5.7 °C 4.7 °C 999.7 hPa West 4.7 km/h 9.7 km/h 93% 0.0 mm 0 W/m2
02:30 5.7 °C 4.7 °C 1000.0 hPa West 4.7 km/h 11.3 km/h 93% 0.0 mm 0 W/m2
02:35 5.7 °C 4.7 °C 1000.0 hPa SW 6.4 km/h 6.4 km/h 93% 0.0 mm 0 W/m2
02:40 5.7 °C 4.7 °C 999.7 hPa WNW 6.4 km/h 16.1 km/h 93% 0.0 mm 0 W/m2
02:45 5.6 °C 4.6 °C 999.7 hPa West 1.4 km/h 6.4 km/h 93% 0.0 mm 0 W/m2
02:50 5.7 °C 4.7 °C 999.7 hPa North 3.2 km/h 16.1 km/h 93% 0.0 mm 0 W/m2
02:55 5.6 °C 4.6 °C 1000.0 hPa WNW 6.4 km/h 6.4 km/h 93% 0.0 mm 0 W/m2
03:00 5.6 °C 4.6 °C 1000.0 hPa WSW 9.7 km/h 14.5 km/h 93% 0.0 mm 0 W/m2
03:05 5.6 °C 4.6 °C 1000.0 hPa West 9.7 km/h 14.5 km/h 93% 0.0 mm 0 W/m2
03:10 5.6 °C 4.4 °C 1000.0 hPa WSW 13 km/h 14.5 km/h 92% 0.0 mm 0 W/m2
03:15 5.6 °C 4.4 °C 1000.0 hPa WNW 4.7 km/h 19.3 km/h 92% 0.0 mm 0 W/m2
03:20 5.7 °C 4.5 °C 1000.0 hPa NW 4.7 km/h 6.4 km/h 92% 0.0 mm 0 W/m2
03:25 5.7 °C 4.5 °C 1000.0 hPa WNW 4.7 km/h 19.3 km/h 92% 0.0 mm 0 W/m2
03:30 5.7 °C 4.5 °C 1000.0 hPa WSW 6.4 km/h 11.3 km/h 92% 0.0 mm 0 W/m2
03:35 5.7 °C 4.5 °C 1000.0 hPa West 9.7 km/h 16.1 km/h 92% 0.0 mm 0 W/m2
03:40 5.6 °C 4.4 °C 999.7 hPa WSW 7.9 km/h 19.3 km/h 92% 0.0 mm 0 W/m2
03:45 5.6 °C 4.4 °C 999.7 hPa WNW 4.7 km/h 20.9 km/h 92% 0.0 mm 0 W/m2
03:50 5.5 °C 4.3 °C 999.7 hPa West 4.7 km/h 9.7 km/h 92% 0.0 mm 0 W/m2
03:55 5.4 °C 4.2 °C 999.7 hPa NW 7.9 km/h 20.9 km/h 92% 0.0 mm 0 W/m2
04:01 5.4 °C 4.2 °C 999.7 hPa West 9.7 km/h 12.9 km/h 92% 0.0 mm 0 W/m2
04:06 5.4 °C 4.2 °C 1000.0 hPa WNW 14.3 km/h 14.5 km/h 92% 0.0 mm 0 W/m2
04:11 5.3 °C 4.1 °C 1000.0 hPa WSW 4.7 km/h 4.8 km/h 92% 0.0 mm 0 W/m2
04:16 5.3 °C 4.1 °C 999.7 hPa West 6.4 km/h 11.3 km/h 92% 0.0 mm 0 W/m2
04:21 5.3 °C 4.1 °C 999.7 hPa West 6.4 km/h 14.5 km/h 92% 0.0 mm 0 W/m2
04:26 5.3 °C 4.1 °C 1000.0 hPa WSW 1.4 km/h 17.7 km/h 92% 0.0 mm 0 W/m2
04:31 5.3 °C 4 °C 1000.0 hPa West 6.4 km/h 9.7 km/h 91% 0.0 mm 0 W/m2
04:36 5.3 °C 4 °C 1000.0 hPa West 1.4 km/h 14.5 km/h 91% 0.0 mm 0 W/m2
04:41 5.3 °C 4 °C 1000.0 hPa WSW 4.7 km/h 8 km/h 91% 0.0 mm 0 W/m2
04:46 5.3 °C 4 °C 1000.0 hPa WNW 3.2 km/h 12.9 km/h 91% 0.0 mm 0 W/m2
04:51 5.2 °C 4 °C 1000.0 hPa West 6.4 km/h 6.4 km/h 92% 0.0 mm 0 W/m2
04:56 5.2 °C 4 °C 1000.0 hPa WNW 1.4 km/h 12.9 km/h 92% 0.0 mm 0 W/m2
05:01 5.2 °C 4 °C 1000.0 hPa NW 1.4 km/h 6.4 km/h 92% 0.0 mm 0 W/m2
05:06 5.2 °C 4 °C 1000.0 hPa West 9.7 km/h 9.7 km/h 92% 0.0 mm 0 W/m2
05:11 5.1 °C 3.9 °C 1000.0 hPa WSW 14.3 km/h 14.5 km/h 92% 0.0 mm 0 W/m2
05:16 5.1 °C 4.1 °C 1000.0 hPa West 4.7 km/h 6.4 km/h 93% 0.0 mm 0 W/m2
05:21 5.1 °C 4.1 °C 999.7 hPa WSW 3.2 km/h 9.7 km/h 93% 0.0 mm 0 W/m2
05:26 5.1 °C 4.1 °C 1000.0 hPa West 3.2 km/h 16.1 km/h 93% 0.0 mm 0 W/m2
05:31 5.1 °C 4.1 °C 999.7 hPa West 4.7 km/h 11.3 km/h 93% 0.0 mm 0 W/m2
05:36 5 °C 4 °C 1000.0 hPa WNW 3.2 km/h 16.1 km/h 93% 0.0 mm 0 W/m2
05:41 5 °C 4 °C 1000.0 hPa WSW 6.4 km/h 9.7 km/h 93% 0.0 mm 0 W/m2
05:46 5 °C 4 °C 1000.0 hPa West 4.7 km/h 11.3 km/h 93% 0.0 mm 0 W/m2
05:51 4.9 °C 3.9 °C 1000.0 hPa WSW 6.4 km/h 16.1 km/h 93% 0.0 mm 0 W/m2
05:56 5 °C 4 °C 1000.0 hPa West 16.3 km/h 16.1 km/h 93% 0.0 mm 0 W/m2
06:01 5 °C 3.8 °C 1000.0 hPa SW 7.9 km/h 9.7 km/h 92% 0.0 mm 0 W/m2
06:06 5 °C 4 °C 1000.0 hPa West 16.1 km/h 16.1 km/h 93% 0.0 mm 0 W/m2
06:11 5 °C 3.8 °C 1000.0 hPa West 9.7 km/h 11.3 km/h 92% 0.0 mm 0 W/m2
06:16 5 °C 3.8 °C 1000.0 hPa North 6.4 km/h 12.9 km/h 92% 0.0 mm 0 W/m2
06:21 5 °C 3.8 °C 1000.3 hPa WNW 4.7 km/h 6.4 km/h 92% 0.0 mm 0 W/m2
06:26 5 °C 3.8 °C 1000.3 hPa WSW 11.1 km/h 16.1 km/h 92% 0.0 mm 0 W/m2
06:31 4.9 °C 3.7 °C 1000.3 hPa West 6.4 km/h 9.7 km/h 92% 0.0 mm 0 W/m2
06:36 4.9 °C 3.7 °C 1000.3 hPa NW 4.7 km/h 6.4 km/h 92% 0.2 mm 0 W/m2
06:41 4.8 °C 3.8 °C 1000.3 hPa West 3.2 km/h 11.3 km/h 93% 0.5 mm 0 W/m2
06:46 4.6 °C 3.4 °C 1000.3 hPa West 13 km/h 17.7 km/h 92% 0.5 mm 0 W/m2
06:51 4.6 °C 3.4 °C 1000.3 hPa West 4.7 km/h 12.9 km/h 92% 0.5 mm 0 W/m2
06:56 4.6 °C 3.4 °C 1000.3 hPa WNW 6.4 km/h 17.7 km/h 92% 0.5 mm 0 W/m2
07:01 4.6 °C 3.4 °C 1000.3 hPa West 9.7 km/h 12.9 km/h 92% 0.5 mm 0 W/m2
07:11 4.6 °C 3.4 °C 1000.3 hPa West 13 km/h 19.3 km/h 92% 0.5 mm 0 W/m2
07:16 4.6 °C 3.4 °C 1000.3 hPa WNW 7.9 km/h 14.5 km/h 92% 0.5 mm 0 W/m2
07:21 4.6 °C 3.4 °C 1000.3 hPa West 4.7 km/h 19.3 km/h 92% 0.5 mm 0 W/m2
07:26 4.5 °C 3.3 °C 1000.3 hPa West 6.4 km/h 11.3 km/h 92% 0.5 mm 0 W/m2
07:32 4.4 °C 3.2 °C 1000.3 hPa WSW 3.2 km/h 17.7 km/h 92% 0.5 mm 0 W/m2
07:37 4.4 °C 3.2 °C 1000.3 hPa WNW 4.7 km/h 19.3 km/h 92% 0.5 mm 0 W/m2
07:42 4.4 °C 3.2 °C 1000.3 hPa SW 13 km/h 14.5 km/h 92% 0.2 mm 0 W/m2
07:47 4.3 °C 3 °C 1000.7 hPa West 4.7 km/h 14.5 km/h 91% 0.2 mm 0 W/m2
07:52 4.2 °C 2.9 °C 1000.7 hPa West 14.3 km/h 17.7 km/h 91% 0.2 mm 0 W/m2
07:57 4.2 °C 2.9 °C 1000.7 hPa West 4.7 km/h 12.9 km/h 91% 0.2 mm 0 W/m2
08:02 4.1 °C 2.8 °C 1000.7 hPa West 14.3 km/h 16.1 km/h 91% 0.2 mm 0 W/m2
08:07 4.1 °C 2.8 °C 1001.0 hPa WSW 7.9 km/h 16.1 km/h 91% 0.2 mm 0 W/m2
08:12 4.1 °C 2.8 °C 1001.0 hPa West 6.4 km/h 25.7 km/h 91% 0.2 mm 0 W/m2
08:17 4.1 °C 2.8 °C 1001.0 hPa West 4.7 km/h 11.3 km/h 91% 0.2 mm 0 W/m2
08:22 4.1 °C 2.6 °C 1001.0 hPa West 4.7 km/h 16.1 km/h 90% 0.2 mm 0 W/m2
08:27 4.1 °C 2.6 °C 1001.0 hPa West 9.7 km/h 16.1 km/h 90% 0.2 mm 5 W/m2
08:32 4.1 °C 2.6 °C 1001.0 hPa NW 9.7 km/h 14.5 km/h 90% 0.2 mm 7 W/m2
08:37 4 °C 2.5 °C 1001.4 hPa West 11.1 km/h 17.7 km/h 90% 0.2 mm 7 W/m2
08:42 4 °C 2.4 °C 1001.4 hPa West 14.3 km/h 20.9 km/h 89% 0.2 mm 11 W/m2
08:47 4 °C 2.2 °C 1001.4 hPa WSW 22.7 km/h 25.7 km/h 88% 0.0 mm 11 W/m2
08:52 4 °C 2 °C 1001.7 hPa West 11.1 km/h 16.1 km/h 87% 0.0 mm 14 W/m2
08:57 3.9 °C 1.9 °C 1001.7 hPa West 14.3 km/h 22.5 km/h 87% 0.0 mm 14 W/m2
09:02 3.9 °C 1.8 °C 1001.4 hPa West 16.3 km/h 20.9 km/h 86% 0.0 mm 18 W/m2
09:07 3.9 °C 1.8 °C 1001.7 hPa WNW 6.4 km/h 20.9 km/h 86% 0.0 mm 19 W/m2
09:12 3.9 °C 1.8 °C 1001.7 hPa West 11.1 km/h 14.5 km/h 86% 0.0 mm 19 W/m2
09:17 3.9 °C 1.9 °C 1001.7 hPa West 11.1 km/h 16.1 km/h 87% 0.0 mm 19 W/m2
09:22 3.8 °C 2 °C 1001.7 hPa WSW 6.4 km/h 11.3 km/h 88% 0.0 mm 16 W/m2
09:27 3.7 °C 1.9 °C 1001.7 hPa West 6.4 km/h 12.9 km/h 88% 0.0 mm 18 W/m2
09:32 3.7 °C 2.1 °C 1001.7 hPa West 11.1 km/h 12.9 km/h 89% 0.0 mm 16 W/m2
09:37 3.7 °C 2.1 °C 1002.0 hPa West 16.3 km/h 22.5 km/h 89% 0.0 mm 14 W/m2
09:42 3.7 °C 2.1 °C 1002.0 hPa SW 11.1 km/h 24.1 km/h 89% 0.0 mm 14 W/m2
09:47 3.6 °C 2 °C 1002.0 hPa West 17.7 km/h 17.7 km/h 89% 0.0 mm 16 W/m2
09:52 3.6 °C 1.8 °C 1002.0 hPa WSW 16.3 km/h 24.1 km/h 88% 0.0 mm 19 W/m2
09:57 3.6 °C 1.8 °C 1002.0 hPa WNW 4.7 km/h 17.7 km/h 88% 0.0 mm 19 W/m2
10:02 3.6 °C 1.8 °C 1002.0 hPa West 11.1 km/h 22.5 km/h 88% 0.0 mm 32 W/m2
10:07 3.6 °C 1.8 °C 1002.0 hPa NW 6.4 km/h 19.3 km/h 88% 0.0 mm 42 W/m2
10:12 3.6 °C 2 °C 1002.0 hPa WSW 20.9 km/h 20.9 km/h 89% 0.0 mm 40 W/m2
10:17 3.7 °C 1.9 °C 1002.0 hPa WNW 13 km/h 17.7 km/h 88% 0.0 mm 49 W/m2
10:22 3.6 °C 1.6 °C 1002.0 hPa WNW 6.4 km/h 22.5 km/h 87% 0.0 mm 44 W/m2
10:27 3.7 °C 1.7 °C 1002.4 hPa WNW 17.7 km/h 20.9 km/h 87% 0.0 mm 37 W/m2
10:32 3.6 °C 1.5 °C 1002.4 hPa WNW 16.3 km/h 19.3 km/h 86% 0.0 mm 33 W/m2
10:37 3.6 °C 1.5 °C 1002.4 hPa North 6.4 km/h 22.5 km/h 86% 0.0 mm 35 W/m2
10:42 3.7 °C 1.6 °C 1002.4 hPa West 13 km/h 22.5 km/h 86% 0.0 mm 46 W/m2
10:47 3.7 °C 1.6 °C 1002.4 hPa NW 9.7 km/h 24.1 km/h 86% 0.0 mm 100 W/m2
10:52 3.9 °C 1.8 °C 1002.7 hPa West 19.5 km/h 19.3 km/h 86% 0.0 mm 179 W/m2
10:57 4.1 °C 2 °C 1002.4 hPa NNW 9.7 km/h 22.5 km/h 86% 0.0 mm 211 W/m2
11:02 4.2 °C 2.1 °C 1002.7 hPa WNW 6.4 km/h 19.3 km/h 86% 0.0 mm 158 W/m2
11:07 4.2 °C 2.1 °C 1002.7 hPa NNW 6.4 km/h 22.5 km/h 86% 0.0 mm 144 W/m2
11:12 4.1 °C 2 °C 1002.7 hPa NW 13 km/h 25.7 km/h 86% 0.0 mm 118 W/m2
11:17 3.9 °C 1.8 °C 1002.7 hPa WNW 14.3 km/h 19.3 km/h 86% 0.0 mm 118 W/m2
11:22 3.8 °C 1.8 °C 1002.7 hPa West 6.4 km/h 17.7 km/h 87% 0.0 mm 135 W/m2
11:27 3.7 °C 1.9 °C 1002.7 hPa WNW 13 km/h 16.1 km/h 88% 0.0 mm 132 W/m2
11:32 3.7 °C 1.9 °C 1002.7 hPa WNW 9.7 km/h 24.1 km/h 88% 0.0 mm 120 W/m2
11:37 3.7 °C 1.9 °C 1002.7 hPa WNW 13 km/h 14.5 km/h 88% 0.0 mm 79 W/m2
11:42 3.7 °C 2.1 °C 1002.7 hPa WSW 7.9 km/h 19.3 km/h 89% 0.0 mm 97 W/m2
11:47 3.7 °C 1.9 °C 1002.7 hPa WNW 3.2 km/h 14.5 km/h 88% 0.0 mm 128 W/m2
11:52 3.7 °C 2.1 °C 1002.7 hPa NW 4.7 km/h 12.9 km/h 89% 0.0 mm 135 W/m2
11:57 3.7 °C 1.9 °C 1002.7 hPa NW 1.4 km/h 12.9 km/h 88% 0.0 mm 135 W/m2
12:02 3.7 °C 1.7 °C 1002.7 hPa WSW 6.4 km/h 20.9 km/h 87% 0.0 mm 104 W/m2
12:07 3.8 °C 1.8 °C 1002.7 hPa NW 1.4 km/h 14.5 km/h 87% 0.0 mm 63 W/m2
12:12 3.8 °C 2 °C 1002.7 hPa WNW 3.2 km/h 9.7 km/h 88% 0.0 mm 58 W/m2
12:17 3.8 °C 1.8 °C 1002.7 hPa WNW 7.9 km/h 14.5 km/h 87% 0.0 mm 65 W/m2
12:22 3.8 °C 1.8 °C 1002.7 hPa West 14.3 km/h 17.7 km/h 87% 0.0 mm 88 W/m2
12:27 3.7 °C 1.7 °C 1002.7 hPa WNW 6.4 km/h 16.1 km/h 87% 0.0 mm 88 W/m2
12:32 3.7 °C 1.6 °C 1002.7 hPa West 14.3 km/h 20.9 km/h 86% 0.0 mm 93 W/m2
12:37 3.6 °C 1.5 °C 1003.0 hPa WNW 4.7 km/h 14.5 km/h 86% 0.0 mm 79 W/m2
12:42 3.5 °C 1.4 °C 1003.0 hPa West 4.7 km/h 20.9 km/h 86% 0.0 mm 97 W/m2
12:47 3.5 °C 1.5 °C 1003.0 hPa WNW 11.1 km/h 14.5 km/h 87% 0.0 mm 98 W/m2
12:52 3.5 °C 1.5 °C 1003.0 hPa WNW 11.1 km/h 12.9 km/h 87% 0.0 mm 105 W/m2
12:57 3.6 °C 1.6 °C 1003.0 hPa WNW 7.9 km/h 12.9 km/h 87% 0.0 mm 127 W/m2
13:02 3.6 °C 1.6 °C 1003.0 hPa West 11.1 km/h 16.1 km/h 87% 0.0 mm 107 W/m2
13:07 3.5 °C 1.5 °C 1003.0 hPa WSW 11.1 km/h 17.7 km/h 87% 0.0 mm 109 W/m2
13:12 3.4 °C 1.4 °C 1003.0 hPa WNW 4.7 km/h 11.3 km/h 87% 0.0 mm 77 W/m2
13:17 3.5 °C 1.5 °C 1003.4 hPa West 6.4 km/h 11.3 km/h 87% 0.0 mm 97 W/m2
13:22 3.6 °C 1.6 °C 1003.4 hPa West 11.1 km/h 11.3 km/h 87% 0.0 mm 79 W/m2
13:27 3.6 °C 1.3 °C 1003.4 hPa West 9.7 km/h 14.5 km/h 85% 0.0 mm 54 W/m2
13:32 3.6 °C 1.3 °C 1003.4 hPa West 4.7 km/h 11.3 km/h 85% 0.0 mm 58 W/m2
13:37 3.6 °C 1.2 °C 1003.4 hPa West 4.7 km/h 17.7 km/h 84% 0.0 mm 54 W/m2
13:42 3.6 °C 1 °C 1003.4 hPa WNW 6.4 km/h 11.3 km/h 83% 0.0 mm 86 W/m2
13:47 3.6 °C 1 °C 1003.4 hPa NNW 13 km/h 22.5 km/h 83% 0.0 mm 114 W/m2
13:52 3.7 °C 0.7 °C 1003.4 hPa WNW 11.1 km/h 14.5 km/h 81% 0.0 mm 134 W/m2
13:57 3.7 °C 1.1 °C 1003.4 hPa West 4.7 km/h 14.5 km/h 83% 0.0 mm 90 W/m2
14:02 3.7 °C 0.7 °C 1003.4 hPa West 11.1 km/h 24.1 km/h 81% 0.0 mm 69 W/m2
14:07 3.7 °C 0.9 °C 1003.4 hPa WNW 6.4 km/h 12.9 km/h 82% 0.0 mm 120 W/m2
14:12 3.6 °C 1 °C 1003.4 hPa WSW 13 km/h 20.9 km/h 83% 0.0 mm 139 W/m2
14:17 3.6 °C 1 °C 1003.4 hPa NW 7.9 km/h 17.7 km/h 83% 0.0 mm 142 W/m2
14:22 3.6 °C 1 °C 1003.7 hPa NW 6.4 km/h 17.7 km/h 83% 0.0 mm 104 W/m2
14:27 3.5 °C 0.9 °C 1003.7 hPa West 13 km/h 16.1 km/h 83% 0.0 mm 46 W/m2
14:32 3.5 °C 0.9 °C 1003.7 hPa WNW 7.9 km/h 11.3 km/h 83% 0.0 mm 74 W/m2
14:37 3.5 °C 0.9 °C 1003.7 hPa WSW 4.7 km/h 14.5 km/h 83% 0.0 mm 67 W/m2
14:42 3.5 °C 0.7 °C 1003.7 hPa West 6.4 km/h 16.1 km/h 82% 0.0 mm 46 W/m2
14:47 3.5 °C 0.7 °C 1003.7 hPa WSW 11.1 km/h 20.9 km/h 82% 0.0 mm 49 W/m2
14:52 3.5 °C 0.5 °C 1004.1 hPa WNW 4.7 km/h 19.3 km/h 81% 0.0 mm 32 W/m2
14:57 3.5 °C 0.7 °C 1004.1 hPa WNW 6.4 km/h 20.9 km/h 82% 0.0 mm 21 W/m2
15:02 3.4 °C 0.6 °C 1004.1 hPa West 13 km/h 20.9 km/h 82% 0.0 mm 39 W/m2
15:07 3.5 °C 0.7 °C 1004.1 hPa WNW 11.1 km/h 19.3 km/h 82% 0.0 mm 37 W/m2
15:12 3.4 °C 0.6 °C 1004.1 hPa West 14.3 km/h 20.9 km/h 82% 0.0 mm 23 W/m2
15:17 3.4 °C 0.8 °C 1004.1 hPa WNW 11.1 km/h 16.1 km/h 83% 0.0 mm 21 W/m2
15:22 3.4 °C 0.8 °C 1004.1 hPa WNW 6.4 km/h 19.3 km/h 83% 0.0 mm 37 W/m2
15:27 3.4 °C 0.8 °C 1004.4 hPa WSW 11.1 km/h 16.1 km/h 83% 0.0 mm 28 W/m2
15:32 3.4 °C 0.8 °C 1004.4 hPa West 6.4 km/h 14.5 km/h 83% 0.0 mm 21 W/m2
15:37 3.4 °C 0.8 °C 1004.4 hPa NNW 9.7 km/h 12.9 km/h 83% 0.0 mm 18 W/m2
15:42 3.4 °C 0.8 °C 1004.4 hPa WNW 4.7 km/h 6.4 km/h 83% 0.0 mm 30 W/m2
15:47 3.4 °C 0.8 °C 1004.4 hPa West 9.7 km/h 16.1 km/h 83% 0.0 mm 35 W/m2
15:52 3.4 °C 0.8 °C 1004.7 hPa SW 3.2 km/h 11.3 km/h 83% 0.0 mm 33 W/m2
15:57 3.4 °C 1 °C 1004.7 hPa WNW 4.7 km/h 22.5 km/h 84% 0.0 mm 21 W/m2
16:02 3.4 °C 1 °C 1004.7 hPa WSW 9.7 km/h 9.7 km/h 84% 0.0 mm 19 W/m2
16:07 3.4 °C 1 °C 1004.7 hPa West 22.5 km/h 22.5 km/h 84% 0.0 mm 18 W/m2
16:12 3.4 °C 1 °C 1004.7 hPa NW 6.4 km/h 14.5 km/h 84% 0.0 mm 14 W/m2
16:17 3.4 °C 1 °C 1005.1 hPa West 11.1 km/h 16.1 km/h 84% 0.0 mm 21 W/m2
16:22 3.4 °C 1 °C 1004.7 hPa West 9.7 km/h 16.1 km/h 84% 0.0 mm 11 W/m2
16:27 3.3 °C 0.9 °C 1004.7 hPa WNW 11.1 km/h 16.1 km/h 84% 0.0 mm 5 W/m2
16:32 3.3 °C 1 °C 1005.1 hPa West 9.7 km/h 17.7 km/h 85% 0.0 mm 5 W/m2
16:37 3.2 °C 0.9 °C 1005.1 hPa NW 4.7 km/h 17.7 km/h 85% 0.0 mm 0 W/m2
16:42 3.2 °C 0.9 °C 1005.1 hPa West 4.7 km/h 12.9 km/h 85% 0.0 mm 0 W/m2
16:47 3.2 °C 0.9 °C 1005.4 hPa West 11.1 km/h 24.1 km/h 85% 0.0 mm 0 W/m2
16:52 3.3 °C 1 °C 1005.4 hPa West 14.3 km/h 14.5 km/h 85% 0.0 mm 0 W/m2
16:57 3.3 °C 1 °C 1005.4 hPa WSW 7.9 km/h 12.9 km/h 85% 0.0 mm 0 W/m2
17:02 3.3 °C 1 °C 1005.8 hPa NW 6.4 km/h 17.7 km/h 85% 0.0 mm 0 W/m2
17:07 3.3 °C 1 °C 1005.8 hPa WNW 3.2 km/h 8 km/h 85% 0.0 mm 0 W/m2
17:12 3.3 °C 1 °C 1005.8 hPa West 9.7 km/h 9.7 km/h 85% 0.0 mm 0 W/m2
17:17 3.2 °C 1.1 °C 1006.1 hPa West 4.7 km/h 9.7 km/h 86% 0.0 mm 0 W/m2
17:22 3.2 °C 1.1 °C 1006.1 hPa WNW 6.4 km/h 14.5 km/h 86% 0.0 mm 0 W/m2
17:27 3.2 °C 1.1 °C 1006.1 hPa NW 3.2 km/h 8 km/h 86% 0.0 mm 0 W/m2
17:32 3.2 °C 1.1 °C 1006.4 hPa WNW 1.4 km/h 12.9 km/h 86% 0.0 mm 0 W/m2
17:37 3.2 °C 1.2 °C 1006.4 hPa WSW 6.4 km/h 6.4 km/h 87% 0.0 mm 0 W/m2
17:42 3.1 °C 1.1 °C 1006.4 hPa West 9.7 km/h 14.5 km/h 87% 0.0 mm 0 W/m2
17:47 3.1 °C 1.1 °C 1006.8 hPa West 6.4 km/h 6.4 km/h 87% 0.0 mm 0 W/m2
17:52 3 °C 1.2 °C 1006.8 hPa West 4.7 km/h 14.5 km/h 88% 0.0 mm 0 W/m2
17:57 2.9 °C 1.1 °C 1006.8 hPa NW 6.4 km/h 11.3 km/h 88% 0.0 mm 0 W/m2
18:02 2.9 °C 1.1 °C 1006.8 hPa West 4.7 km/h 8 km/h 88% 0.0 mm 0 W/m2
18:07 2.9 °C 1.3 °C 1007.1 hPa Calm   4.8 km/h 89% 0.0 mm 0 W/m2
18:13 2.8 °C 1.2 °C 1007.1 hPa WSW 3.2 km/h 4.8 km/h 89% 0.0 mm 0 W/m2
18:18 2.8 °C 1.2 °C 1007.5 hPa WNW 4.7 km/h 4.8 km/h 89% 0.0 mm 0 W/m2
18:23 2.8 °C 1.2 °C 1007.1 hPa WSW 1.4 km/h 6.4 km/h 89% 0.0 mm 0 W/m2
18:28 2.7 °C 0.9 °C 1007.5 hPa WNW 4.7 km/h 9.7 km/h 88% 0.0 mm 0 W/m2
18:33 2.6 °C 0.8 °C 1007.5 hPa West 3.2 km/h 9.7 km/h 88% 0.0 mm 0 W/m2
18:38 2.5 °C 0.6 °C 1007.5 hPa West 9.7 km/h 11.3 km/h 87% 0.0 mm 0 W/m2
18:43 2.4 °C 0.5 °C 1007.5 hPa West 6.4 km/h 12.9 km/h 87% 0.0 mm 0 W/m2
18:48 2.4 °C 0.5 °C 1007.5 hPa WSW 3.2 km/h 11.3 km/h 87% 0.0 mm 0 W/m2
18:53 2.3 °C 0.5 °C 1007.8 hPa WNW 6.4 km/h 6.4 km/h 88% 0.0 mm 0 W/m2
Juneau County Weather
Compliments of Weather Underground - 2 mb